| time (UTC) | temp C | wind direction | speed KPH | gust KPH | rain 1hr cm | rain 24hr cm | rain mn cm | humidity % | barometer mb |
| 20260507030629 | 16 | 217 | 1.6 | 6.4 | 0.00 | 0.00 | 0.00 | 93 | 1008.6 |
| 20260507025616 | 16 | 330 | 6.4 | 9.7 | 0.00 | 0.00 | 0.00 | 92 | 1008.5 |
| 20260507024602 | 16 | 230 | 1.6 | 6.4 | 0.00 | 0.00 | 0.00 | 92 | 1008.4 |
| 20260507023548 | 16 | 282 | 4.8 | 6.4 | 0.00 | 0.00 | 0.00 | 94 | 1008.6 |
| 20260507022534 | 17 | 338 | 4.8 | 9.7 | 0.00 | 0.00 | 0.00 | 95 | 1008.7 |
| 20260507021520 | 17 | 0.0 | 3.2 | 0.00 | 0.00 | 0.00 | 94 | 1008.5 | |
| 20260507020507 | 17 | 233 | 8.0 | 11.3 | 0.00 | 0.00 | 0.00 | 92 | 1008.7 |
| 20260507015452 | 18 | 236 | 6.4 | 9.7 | 0.00 | 0.00 | 0.00 | 89 | 1008.5 |
| 20260507014439 | 18 | 213 | 4.8 | 6.4 | 0.00 | 0.00 | 0.00 | 86 | 1008.5 |
| 20260507013425 | 18 | 222 | 3.2 | 4.8 | 0.00 | 0.00 | 0.00 | 86 | 1008.2 |
| 20260507012411 | 18 | 201 | 3.2 | 3.2 | 0.00 | 0.00 | 0.00 | 86 | 1008.4 |
| 20260507011357 | 18 | 213 | 1.6 | 4.8 | 0.00 | 0.00 | 0.00 | 86 | 1008.0 |
| 20260507010343 | 18 | 196 | 3.2 | 3.2 | 0.00 | 0.00 | 0.00 | 85 | 1008.0 |
| 20260507005329 | 18 | 208 | 3.2 | 4.8 | 0.00 | 0.00 | 0.00 | 85 | 1008.3 |
| 20260507004315 | 18 | 211 | 1.6 | 3.2 | 0.00 | 0.00 | 0.00 | 85 | 1008.1 |
| 20260507003301 | 18 | 227 | 4.8 | 6.4 | 0.00 | 0.00 | 0.00 | 84 | 1007.8 |
| 20260507002247 | 18 | 223 | 3.2 | 4.8 | 0.00 | 0.00 | 0.00 | 84 | 1007.5 |
| 20260507001235 | 18 | 217 | 6.4 | 6.4 | 0.00 | 0.00 | 0.00 | 84 | 1007.5 |
| 20260507000222 | 18 | 190 | 6.4 | 6.4 | 0.00 | 0.00 | 0.00 | 83 | 1007.4 |
| 20260506235247 | 18 | 260 | 3.2 | 9.7 | 0.00 | 0.00 | 0.00 | 83 | 1007.5 |
| 20260506234153 | 18 | 196 | 4.8 | 9.7 | 0.00 | 0.00 | 0.00 | 83 | 1007.4 |
| 20260506233139 | 19 | 239 | 6.4 | 11.3 | 0.00 | 0.00 | 0.00 | 83 | 1007.4 |
| 20260506232126 | 19 | 185 | 3.2 | 4.8 | 0.00 | 0.00 | 0.00 | 81 | 1007.2 |
| 20260506231112 | 19 | 202 | 8.0 | 9.7 | 0.00 | 0.00 | 0.00 | 81 | 1007.2 |
| 20260506230058 | 19 | 240 | 6.4 | 9.7 | 0.00 | 0.00 | 0.00 | 81 | 1007.3 |
| 20260506225104 | 20 | 190 | 4.8 | 4.8 | 0.00 | 0.00 | 0.00 | 81 | 1007.2 |
| 20260506224031 | 20 | 213 | 1.6 | 6.4 | 0.00 | 0.00 | 0.00 | 81 | 1007.2 |
| 20260506223017 | 19 | 216 | 3.2 | 9.7 | 0.00 | 0.00 | 0.00 | 82 | 1007.2 |
| 20260506222004 | 19 | 223 | 3.2 | 6.4 | 0.00 | 0.00 | 0.00 | 82 | 1007.2 |
| 20260506220949 | 19 | 219 | 6.4 | 12.9 | 0.00 | 0.00 | 0.00 | 82 | 1007.4 |
| 20260506215936 | 20 | 206 | 6.4 | 12.9 | 0.00 | 0.00 | 0.00 | 81 | 1007.1 |
| 20260506214923 | 20 | 154 | 8.0 | 11.3 | 0.00 | 0.00 | 0.00 | 80 | 1007.2 |
| 20260506213928 | 20 | 195 | 3.2 | 11.3 | 0.00 | 0.00 | 0.00 | 81 | 1006.8 |
| 20260506212854 | 19 | 224 | 6.4 | 11.3 | 0.00 | 0.00 | 0.00 | 81 | 1007.1 |
| 20260506211842 | 19 | 208 | 4.8 | 9.7 | 0.00 | 0.00 | 0.00 | 82 | 1006.9 |
| 20260506210827 | 18 | 207 | 3.2 | 12.9 | 0.00 | 0.00 | 0.00 | 83 | 1006.9 |
| 20260506205813 | 18 | 221 | 4.8 | 9.7 | 0.00 | 0.00 | 0.00 | 83 | 1006.8 |
| 20260506204759 | 18 | 208 | 9.7 | 12.9 | 0.00 | 0.00 | 0.00 | 83 | 1007.0 |
| 20260506203745 | 18 | 199 | 6.4 | 16.1 | 0.00 | 0.00 | 0.00 | 85 | 1006.6 |
| 20260506202732 | 18 | 243 | 6.4 | 9.7 | 0.00 | 0.00 | 0.00 | 85 | 1006.7 |
| 20260506201719 | 18 | 212 | 3.2 | 9.7 | 0.00 | 0.00 | 0.00 | 85 | 1006.9 |
| 20260506200726 | 17 | 224 | 4.8 | 11.3 | 0.00 | 0.00 | 0.00 | 86 | 1006.9 |
| 20260506195651 | 17 | 247 | 4.8 | 16.1 | 0.00 | 0.00 | 0.00 | 86 | 1007.0 |
| 20260506194637 | 17 | 178 | 12.9 | 16.1 | 0.00 | 0.00 | 0.00 | 87 | 1006.9 |
| 20260506194146 | 17 | 213 | 12.9 | 16.1 | 0.00 | 0.00 | 0.00 | 87 | 1007.0 |
| 20260506193134 | 17 | 155 | 1.6 | 12.9 | 0.00 | 0.00 | 0.00 | 89 | 1007.1 |
| 20260506192059 | 17 | 216 | 6.4 | 17.7 | 0.00 | 0.00 | 0.00 | 89 | 1007.4 |
| 20260506191105 | 16 | 245 | 9.7 | 20.9 | 0.00 | 0.00 | 0.00 | 89 | 1007.4 |
| 20260506190033 | 16 | 217 | 6.4 | 11.3 | 0.00 | 0.00 | 0.00 | 89 | 1007.6 |
| 20260506185016 | 16 | 245 | 6.4 | 9.7 | 0.00 | 0.00 | 0.00 | 89 | 1007.4 |
| 20260506184003 | 16 | 212 | 3.2 | 12.9 | 0.00 | 0.00 | 0.00 | 90 | 1007.7 |
| 20260506182948 | 16 | 198 | 4.8 | 22.5 | 0.00 | 0.00 | 0.00 | 91 | 1007.6 |
| 20260506182016 | 16 | 218 | 11.3 | 16.1 | 0.00 | 0.00 | 0.00 | 92 | 1007.7 |
| 20260506180922 | 16 | 209 | 6.4 | 9.7 | 0.00 | 0.00 | 0.00 | 93 | 1007.7 |
| 20260506175907 | 16 | 198 | 4.8 | 14.5 | 0.00 | 0.00 | 0.00 | 91 | 1007.9 |
| 20260506174854 | 16 | 217 | 6.4 | 20.9 | 0.00 | 0.00 | 0.00 | 90 | 1008.0 |
| 20260506173841 | 16 | 184 | 6.4 | 16.1 | 0.00 | 0.00 | 0.00 | 91 | 1008.0 |
| 20260506172850 | 16 | 238 | 6.4 | 14.5 | 0.00 | 0.00 | 0.00 | 91 | 1007.9 |
| 20260506171812 | 16 | 190 | 12.9 | 17.7 | 0.00 | 0.00 | 0.00 | 92 | 1008.2 |
| 20260506170758 | 16 | 218 | 9.7 | 22.5 | 0.00 | 0.00 | 0.00 | 93 | 1008.0 |
| 20260506165744 | 16 | 216 | 1.6 | 16.1 | 0.00 | 0.00 | 0.00 | 93 | 1007.8 |
| 20260506164729 | 16 | 186 | 11.3 | 16.1 | 0.00 | 0.00 | 0.00 | 93 | 1007.8 |
| 20260506163717 | 16 | 194 | 11.3 | 16.1 | 0.00 | 0.00 | 0.00 | 93 | 1008.1 |
| 20260506162721 | 16 | 187 | 6.4 | 12.9 | 0.00 | 0.00 | 0.00 | 93 | 1007.9 |
| 20260506161648 | 16 | 202 | 1.6 | 14.5 | 0.00 | 0.00 | 0.00 | 93 | 1008.5 |
| 20260506160634 | 16 | 180 | 6.4 | 11.3 | 0.00 | 0.00 | 0.00 | 93 | 1008.9 |
| 20260506155621 | 16 | 191 | 11.3 | 14.5 | 0.00 | 0.00 | 0.00 | 92 | 1009.4 |
| 20260506154626 | 16 | 205 | 6.4 | 12.9 | 0.00 | 0.00 | 0.00 | 92 | 1009.4 |
| 20260506153614 | 16 | 228 | 6.4 | 14.5 | 0.00 | 0.00 | 0.00 | 91 | 1009.3 |
| 20260506152539 | 16 | 177 | 4.8 | 17.7 | 0.00 | 0.00 | 0.00 | 89 | 1009.1 |
| 20260506151525 | 16 | 188 | 3.2 | 6.4 | 0.00 | 0.00 | 0.00 | 88 | 1008.8 |
| 20260506150511 | 16 | 217 | 4.8 | 11.3 | 0.00 | 0.00 | 0.00 | 88 | 1009.4 |
| 20260506145457 | 17 | 209 | 9.7 | 14.5 | 0.00 | 0.00 | 0.00 | 85 | 1009.1 |
| 20260506144443 | 17 | 135 | 6.4 | 11.3 | 0.00 | 0.00 | 0.00 | 85 | 1009.1 |
| 20260506143429 | 17 | 201 | 4.8 | 14.5 | 0.00 | 0.00 | 0.00 | 82 | 1009.3 |
| 20260506142415 | 17 | 232 | 8.0 | 14.5 | 0.00 | 0.00 | 0.00 | 79 | 1009.3 |
| 20260506141403 | 18 | 217 | 11.3 | 17.7 | 0.00 | 0.00 | 0.00 | 75 | 1009.3 |
| 20260506140347 | 18 | 207 | 1.6 | 16.1 | 0.00 | 0.00 | 0.00 | 74 | 1008.8 |
| 20260506135353 | 19 | 171 | 9.7 | 14.5 | 0.00 | 0.00 | 0.00 | 73 | 1009.0 |
| 20260506134319 | 18 | 188 | 6.4 | 22.5 | 0.00 | 0.00 | 0.00 | 74 | 1008.9 |
| 20260506133307 | 18 | 177 | 6.4 | 20.9 | 0.00 | 0.00 | 0.00 | 75 | 1009.1 |
| 20260506132252 | 18 | 258 | 11.3 | 20.9 | 0.00 | 0.00 | 0.00 | 74 | 1009.1 |
| 20260506131238 | 18 | 250 | 6.4 | 27.4 | 0.00 | 0.00 | 0.00 | 74 | 1009.3 |
| 20260506130245 | 18 | 228 | 11.3 | 16.1 | 0.00 | 0.00 | 0.00 | 74 | 1009.4 |
| 20260506125210 | 18 | 245 | 12.9 | 22.5 | 0.00 | 0.00 | 0.00 | 73 | 1009.4 |
| 20260506124218 | 18 | 206 | 9.7 | 16.1 | 0.00 | 0.00 | 0.00 | 73 | 1009.0 |
| 20260506123144 | 18 | 243 | 6.4 | 20.9 | 0.00 | 0.00 | 0.00 | 75 | 1009.0 |
| 20260506122131 | 18 | 161 | 4.8 | 12.9 | 0.00 | 0.00 | 0.00 | 76 | 1009.0 |
| 20260506121116 | 18 | 191 | 9.7 | 17.7 | 0.00 | 0.00 | 0.00 | 76 | 1008.8 |
| 20260506115049 | 17 | 185 | 9.7 | 12.9 | 0.00 | 0.00 | 0.00 | 78 | 1008.9 |
| 20260506114035 | 17 | 176 | 9.7 | 16.1 | 0.00 | 0.00 | 0.00 | 79 | 1008.8 |
| 20260506113021 | 17 | 212 | 9.7 | 17.7 | 0.00 | 0.00 | 0.00 | 79 | 1008.9 |
| 20260506112008 | 17 | 208 | 8.0 | 12.9 | 0.00 | 0.00 | 0.00 | 80 | 1008.8 |
| 20260506110954 | 17 | 179 | 6.4 | 17.7 | 0.00 | 0.00 | 0.00 | 80 | 1009.0 |
| 20260506105940 | 17 | 173 | 12.9 | 17.7 | 0.00 | 0.00 | 0.00 | 80 | 1008.9 |
| 20260506104926 | 17 | 212 | 6.4 | 6.4 | 0.00 | 0.00 | 0.00 | 81 | 1008.9 |
| 20260506103913 | 17 | 202 | 4.8 | 14.5 | 0.00 | 0.00 | 0.00 | 81 | 1008.7 |
| 20260506102920 | 17 | 177 | 4.8 | 12.9 | 0.00 | 0.00 | 0.00 | 81 | 1008.7 |
| 20260506101846 | 17 | 197 | 6.4 | 20.9 | 0.00 | 0.00 | 0.00 | 81 | 1008.8 |
| 20260506100833 | 17 | 190 | 3.2 | 11.3 | 0.00 | 0.00 | 0.00 | 81 | 1008.8 |
| 20260506095819 | 17 | 183 | 1.6 | 12.9 | 0.00 | 0.00 | 0.00 | 81 | 1009.0 |
| 20260506094805 | 17 | 175 | 6.4 | 9.7 | 0.00 | 0.00 | 0.00 | 81 | 1009.0 |
| 20260506093751 | 17 | 202 | 6.4 | 11.3 | 0.00 | 0.00 | 0.00 | 80 | 1009.0 |
| 20260506092738 | 17 | 154 | 6.4 | 16.1 | 0.00 | 0.00 | 0.00 | 80 | 1008.7 |
| 20260506091724 | 17 | 206 | 6.4 | 11.3 | 0.00 | 0.00 | 0.00 | 79 | 1008.9 |
| 20260506090713 | 17 | 145 | 3.2 | 14.5 | 0.00 | 0.00 | 0.00 | 79 | 1008.9 |
| 20260506085656 | 17 | 163 | 6.4 | 14.5 | 0.00 | 0.00 | 0.00 | 79 | 1009.0 |
| 20260506085146 | 17 | 193 | 3.2 | 12.9 | 0.00 | 0.00 | 0.00 | 79 | 1009.0 |
| 20260506084132 | 17 | 187 | 3.2 | 20.9 | 0.00 | 0.00 | 0.00 | 78 | 1009.0 |
| 20260506083138 | 18 | 181 | 3.2 | 14.5 | 0.00 | 0.00 | 0.00 | 78 | 1009.0 |
| 20260506082106 | 18 | 188 | 8.0 | 14.5 | 0.00 | 0.00 | 0.00 | 78 | 1008.9 |
| 20260506081051 | 18 | 190 | 3.2 | 11.3 | 0.00 | 0.00 | 0.00 | 77 | 1009.0 |
| 20260506072956 | 18 | 201 | 1.6 | 14.5 | 0.00 | 0.00 | 0.00 | 75 | 1009.1 |
| 20260506071942 | 18 | 219 | 4.8 | 16.1 | 0.00 | 0.00 | 0.00 | 74 | 1009.1 |
| 20260506070928 | 18 | 198 | 1.6 | 9.7 | 0.00 | 0.00 | 0.00 | 73 | 1009.2 |
| 20260506061821 | 18 | 203 | 8.0 | 12.9 | 0.00 | 0.00 | 0.00 | 72 | 1009.5 |
| 20260506060806 | 18 | 211 | 4.8 | 11.3 | 0.00 | 0.00 | 0.00 | 72 | 1009.6 |
| 20260506050707 | 18 | 182 | 8.0 | 11.3 | 0.00 | 0.00 | 0.00 | 70 | 1010.0 |
| 20260506044620 | 19 | 173 | 6.4 | 9.7 | 0.00 | 0.00 | 0.00 | 69 | 1010.1 |
| 20260506043605 | 19 | 178 | 8.0 | 9.7 | 0.00 | 0.00 | 0.00 | 69 | 1010.2 |
| 20260506042613 | 19 | 185 | 9.7 | 20.9 | 0.00 | 0.00 | 0.00 | 68 | 1010.2 |
| 20260506041557 | 19 | 179 | 4.8 | 16.1 | 0.00 | 0.00 | 0.00 | 67 | 1010.0 |
| 20260506040544 | 19 | 185 | 1.6 | 9.7 | 0.00 | 0.00 | 0.00 | 67 | 1010.0 |
| 20260506035530 | 19 | 201 | 4.8 | 9.7 | 0.00 | 0.00 | 0.00 | 66 | 1010.3 |
| 20260506034516 | 19 | 169 | 3.2 | 11.3 | 0.00 | 0.00 | 0.00 | 66 | 1010.2 |
| 20260506033442 | 20 | 125 | 1.6 | 12.9 | 0.00 | 0.00 | 0.00 | 65 | 1009.9 |
| 20260506032428 | 20 | 208 | 4.8 | 14.5 | 0.00 | 0.00 | 0.00 | 65 | 1010.0 |
| 20260506031416 | 20 | 184 | 6.4 | 16.1 | 0.00 | 0.00 | 0.00 | 64 | 1010.0 |